Probability
0 0 0 0 0 0 0 0 0 0 0 0 0 0 0 0 0 0 0 0 0 0 0 0 0 0 0 0 0 0 0 0 0 0 0 0 0 0 0 0 0 0 0 0
0 0 0 0 0 0 0 0 0 0 0 0 0 0 0 0 0 0 0 0 0 0 0 0 0 0 0 0 0 0 0 0 0 0 0 0 0 0 0 0 0 0 0 0
0 0 0 0 0 0 0 0 0 0 0 0 0 0 0 0 0 0 0 0 0 0 0 0 0 0 0 0 0 0 0 0 0 0 0 0 0 0 0 0 0 0 0 0
0 0 0 0 0 0 0 0 0 0 0 0 0 0 0 0 0 0 0 0 0 0 0 0 0 0 0 0 0 0 0 0 0 0 0 0 0 0 0 0 0 0 0 0
0 0 0 0 0 0 0 0 0 0 0 0 0 0 0 0 0 0 0 0 0 0 0 0 0 0 0 0 0 0 0 0 0 0 0 0 0 0 0 0 0 0 0 0
0 0 0 0 0 0 0 0 0 0 0 0 0 0 0 0 0 0 0 0 0 0 0 0 0 0 0 0 0 0 0 0 0 0 0 0 0 0 0 0 0 0 0 0
0 0 0 0 0 0 0 0 0 0 0 0 0 0 0 0 0 0 0 0 0 0 0 0 0 0 0 0 0 0 0 0 0 0 0 0 0 0 0 0 0 0 0 0
0 0 0 0 0 0 0 0 0 0 0 0 0 0 0 0 0 0 0 0 0 0 0 0 0 0 0 0 0 0 0 0 0 0 0 0 0 0 0 0 0 0 0 0
0 0 0 0 0 0 0 0 0 0 0 0 0 0 0 0 0 0 0 0 0 0 0 0 0 0 0 0 0 0 0 0 0 0 0 0 0 0 0 0 0 0 0 0
0 0 0 0 0 0 0 0 0 0 0 0 0 0 0 0 0 0 0 0 0 0 0 0 0 0 0 0 0 0 0 0 0 0 0 0 0 0 0 0 0 0 0 0
0 0 0 0 0 0 0 0 0 0 0 0 0 0 0 0 0 0 0 0 0 0 0 0 0 0 0 0 0 0 0 0 0 0 0 0 0 0 0 0 0 0 0 0
0 0 0 0 0 0 0 0 0 0 0 0 0 0 0 0 0 0 0 0 0 0 0 0 0 0 0 0 0 0 0 0 0 0 0 0 0 0 0 0 0 0 0 0
0 0 0 0 0 0 0 0 0 0 0 0 0 0 0 0 0 0 0 0 0 0 0 0 0 0 0 0 0 0 0 0 0 0 0 0 0 0 0 0 0 0 0 0
0 0 0 0 0 0 0 0 0 0 0 0 0 0 0 0 0 0 0 0 0 0 0 0 0 0 0 0 0 0 0 0 0 0 0 0 0 0 0 0 0 0 0 0
0 0 0 0 0 0 0 0 0 0 0 0 0 0 0 0 0 0 0 0 0 0 0 0 0 0 0 0 0 0 0 0 0 0 0 0 0 0 0 0 0 0 0 0
0 0 0 0 0 0 0 0 0 0 0 0 0 0 0 0 0 0 0 0 0 0 0 0 0 0 0 0 0 0 0 0 0 0 0 0 0 0 0 0 0 0 0 0
0 0 0 0 0 0 0 0 0 0 0 0 0 0 0 0 0 0 0 0 0 0 0 0 0 0 0 0 0 0 0 0 0 0 0 0 0 0 0 0 0 0 0 0
0 0 0 0 0 0 0 0 0 0 0 0 0 0 0 0 0 0 0 0 0 0 0 0 0 0 0 0 0 0 0 0 0 0 0 0 0 0 0 0 0 0 0 0
0 0 0 0 0 0 0 0 0 0 0 0 0 0 0 0 0 0 0 0 0 0 0 0 0 0 0 0 0 0 0 0 0 0 0 0 0 0 0 0 0 0 0 0
0 0 0 0 0 0 0 0 0 0 0 0 0 0 0 0 0 0 0 0 0 0 0 0 0 0 0 0 0 0 0 0 0 0 0 0 0 0 0 0 0 0 0 0
0 0 0 0 0 0 0 0 0 0 0 0 0 0 0 0 0 0 0 0 0 0 0 0 0 0 0 0 0 0 0 0 0 0 0 0 0 0 0 0 0 0 0 0
0 0 0 0 0 0 0 0 0 0 0 0 0 0 0 0 0 0 0 0 0 0 0 0 0 0 0 0 0 0 0 0 0 0 0 0 0 0 0 0 0 0 0 0
0 0 0 0 0 0 0 0 0 0 0 0 0 0 0 0 0 0 0 0 0 0 0 0 0 0 0 0 0 0 0 0 0 0 0 0 0 0 0 0 0 0 0 0
0 0 0 0 0 0 0 0 0 0 0 0 0 0 0 0 0 0 0 0 0 0 0 0 0 0 0 0 0 0 0 0 0 0 0 0 0 0 0 0 0 0 0 0
0 0 0 0 0 0 0 0 0 0 0 0 0 0 0 0 0 0 0 0 0 0 0 0 0 0 0 0 0 0 0 0 0 0 0 0 0 0 0 0 0 0 0 0
0 0 0 0 0 0 0 0 0 0 0 0 0 0 0 0 0 0 0 0 0 0 0 0 0 0 0 0 0 0 0 0 0 0 0 0 0 0 0 0 0 0 0 0
0 0 0 0 0 0 0 0 0 0 0 0 0 0 0 0 0 0 0 0 0 0 0 0 0 0 0 0 0 0 0 0 0 0 0 0 0 0 0 0 0 0 0 0
Wind_Speed
6 5 1 2 5 5 2 1 3 1 5 5 8 8 8 9 10 12 13 13 12 12 10 10 11 10 10 10 10 10 11 11 10 10 10 9 8 7 6 5 4 3 2 1
3 2 1 2 6 5 6 5 4 5 4 4 6 7 10 11 13 13 14 15 14 13 13 12 12 12 11 10 10 9 10 11 12 11 9 9 10 8 7 6 4 3 1 1
3 4 2 3 7 4 5 4 3 2 3 8 10 11 12 13 14 13 12 12 13 12 12 12 12 11 11 11 10 9 9 9 10 11 10 10 9 8 9 8 6 5 3 3
1 3 1 1 3 6 6 4 3 1 6 9 11 11 12 13 14 14 12 12 12 13 13 12 12 12 11 11 10 10 10 10 9 9 10 10 8 10 10 7 7 6 5 6
2 1 2 3 2 4 3 2 1 5 9 10 10 9 9 10 10 11 12 12 13 13 14 13 14 14 12 12 11 11 11 10 9 9 10 10 9 10 9 8 8 7 7 8
2 2 1 2 8 10 4 3 3 6 11 13 11 10 9 8 10 12 14 14 14 14 14 13 14 12 11 12 12 13 12 11 10 9 9 9 10 10 8 8 9 9 8 8
2 1 3 4 9 7 2 7 10 11 12 12 11 13 14 13 14 15 16 16 15 15 14 13 13 11 12 12 13 14 12 11 10 9 8 9 8 8 8 10 10 10 10 8
3 2 2 4 4 3 7 10 11 13 13 14 15 16 17 16 15 14 15 16 15 14 15 13 12 12 13 14 15 13 11 11 11 9 9 8 7 8 7 10 12 11 10 8
1 2 4 4 5 8 9 11 12 12 13 15 16 18 18 17 16 16 16 16 14 14 15 13 12 11 14 15 14 12 11 11 10 10 8 7 6 8 6 8 10 10 10 10
1 2 5 8 9 9 10 11 12 13 14 15 18 20 20 18 16 16 16 15 15 15 15 15 13 12 13 13 12 11 11 11 10 8 8 7 5 5 4 6 9 11 11 11
3 6 8 8 8 10 11 11 13 14 14 14 18 21 20 19 18 17 16 14 14 15 16 17 14 13 13 12 10 10 11 10 9 8 8 7 6 5 5 6 9 11 12 13
4 7 7 11 10 11 12 13 14 17 17 14 15 20 21 19 17 17 16 16 16 17 17 17 15 14 13 12 11 10 9 9 8 7 6 6 6 6 8 9 13 16 14 15
7 7 8 12 11 10 11 14 17 17 18 20 16 16 20 19 17 17 18 19 19 19 18 17 16 15 13 12 11 11 10 9 7 6 7 6 6 5 7 7 10 13 15 16
8 7 8 9 11 13 15 17 16 16 16 17 18 19 20 21 21 21 22 21 21 20 19 18 17 16 13 12 11 10 10 11 9 7 7 6 6 5 6 6 5 6 9 15
8 8 10 13 12 14 15 16 17 17 17 18 17 19 21 22 23 23 22 21 20 20 19 18 17 15 12 10 10 10 8 7 6 6 6 6 6 6 6 7 6 7 8 9
9 10 11 12 15 16 16 17 18 19 19 21 21 21 22 23 23 23 21 20 19 18 17 16 15 13 10 9 9 7 7 11 9 5 5 6 6 6 6 6 6 9 11 11
8 10 12 15 17 17 16 16 18 20 21 22 23 24 24 24 23 22 20 19 17 16 15 14 13 11 8 7 7 6 5 6 9 6 5 6 6 7 7 6 7 9 11 13
9 10 12 15 17 19 19 18 19 21 21 22 23 23 23 23 23 22 21 19 15 13 11 10 9 8 6 6 6 5 5 5 4 5 5 5 6 6 6 6 8 11 10 11
11 11 13 15 15 16 17 18 19 20 20 20 22 23 23 23 22 21 19 17 13 11 9 9 10 8 5 5 5 4 5 5 5 5 5 6 6 6 5 5 8 10 11 12
10 12 13 15 15 15 16 17 18 19 19 20 21 22 23 23 22 21 18 13 8 7 8 8 7 5 3 4 5 3 5 5 5 5 5 5 5 5 4 6 9 11 11 12
11 12 14 14 15 16 16 16 17 18 20 20 21 22 23 23 22 19 15 11 8 7 7 8 5 4 3 3 4 3 4 4 5 5 4 4 4 4 4 7 9 10 10 11
9 11 13 14 15 17 16 15 15 18 20 20 22 22 23 23 22 18 14 9 9 9 6 5 4 4 4 4 3 3 4 4 4 4 4 4 4 4 6 8 9 9 9 10
9 10 11 13 15 17 17 15 16 17 19 21 22 22 22 21 17 15 14 10 9 10 7 5 5 6 6 4 3 4 4 5 4 4 4 4 3 4 6 8 8 9 9 9
9 9 11 12 14 14 17 19 18 16 18 20 19 21 20 17 15 13 12 14 14 12 6 5 6 6 4 3 3 3 3 4 4 4 4 3 4 5 6 8 8 8 8 10
8 9 9 12 13 12 14 17 17 17 17 16 19 20 16 14 15 16 15 15 15 11 6 4 5 3 1 2 3 3 3 3 3 3 4 4 5 6 7 8 8 8 8 8
7 9 10 11 10 10 11 12 13 13 15 16 16 16 15 14 16 15 14 15 16 12 7 4 4 2 1 1 1 1 2 2 3 3 4 5 7 8 8 8 10 8 7 7
8 7 8 9 9 10 11 11 12 14 14 15 17 16 16 16 16 17 17 14 12 10 8 6 6 5 4 3 3 3 3 3 3 4 5 5 6 7 7 9 7 7 7 7
Wind_Direction
241 252 281 322 347 19 73 224 210 93 89 14 354 347 339 335 335 342 348 348 346 341 336 334 333 331 329 329 332 333 329 323 305 283 259 242 231 224 222 223 231 250 280 325
293 297 208 65 23 39 41 25 59 84 72 340 320 330 333 328 327 329 334 334 331 327 323 321 320 318 317 317 318 321 324 326 324 309 279 249 235 219 211 212 213 210 212 144
281 312 72 37 0 60 79 46 43 52 319 315 322 324 318 309 304 301 304 308 308 305 302 300 299 300 299 299 304 308 308 314 325 323 305 274 244 219 209 205 196 190 181 154
301 358 278 111 55 93 115 103 78 360 292 294 286 285 282 276 274 275 281 292 296 296 294 291 290 290 288 288 290 294 297 301 309 317 318 301 260 229 213 197 191 186 179 166
73 15 128 137 31 359 300 198 208 296 296 293 290 289 276 273 264 261 274 283 287 285 285 284 283 283 284 283 283 284 285 287 295 302 311 311 286 246 219 198 191 184 177 170
72 317 304 30 333 319 275 229 233 278 290 295 306 301 288 273 276 282 288 290 290 289 286 282 280 278 275 276 277 276 275 276 280 285 295 304 301 269 224 203 196 184 178 177
28 327 59 317 314 356 26 292 297 291 287 288 281 274 284 287 284 283 285 287 288 289 287 283 282 279 273 272 269 268 269 270 273 275 281 290 303 288 234 208 193 183 177 177
17 9 326 315 7 35 266 269 279 287 288 288 286 285 288 288 285 282 281 281 280 280 281 282 281 279 277 275 272 269 266 265 267 268 276 292 303 303 257 215 194 183 173 169
128 214 241 255 243 250 264 278 284 286 287 288 291 292 291 289 286 283 281 281 277 273 277 276 271 266 269 273 274 271 267 266 265 266 266 270 284 303 284 229 199 183 177 176
63 272 271 272 267 270 276 281 287 288 290 293 292 294 294 292 289 284 281 280 278 275 275 275 269 265 262 267 268 263 261 263 263 262 263 264 267 282 286 255 212 185 181 177
302 281 291 281 276 283 292 293 293 292 292 289 289 292 293 294 291 289 286 283 278 277 277 275 269 265 264 265 260 256 256 258 259 256 254 259 261 263 271 263 237 198 187 178
255 256 260 279 288 296 298 295 295 298 298 290 286 291 294 294 292 291 291 288 286 282 280 278 273 266 260 257 255 252 255 255 252 248 248 249 259 278 267 259 247 221 200 182
248 269 274 283 292 293 289 291 297 298 299 301 297 293 298 297 297 294 293 292 290 287 285 282 277 270 261 252 249 245 244 248 246 244 245 246 249 268 290 283 244 215 195 183
271 290 294 289 292 295 296 298 299 298 297 297 300 301 301 301 300 298 297 295 292 290 287 283 278 273 263 251 243 241 241 247 244 238 242 243 244 253 272 274 238 191 186 176
287 288 282 292 297 300 302 305 308 306 305 303 303 304 305 304 302 300 298 295 293 289 287 284 280 275 262 247 237 235 237 238 236 235 239 241 242 251 262 263 232 183 157 162
291 294 294 300 303 306 309 310 310 309 310 310 311 310 309 305 302 299 298 297 295 293 292 287 281 275 261 244 235 231 230 240 241 234 239 242 244 251 259 253 219 182 168 160
312 309 310 313 313 312 310 309 309 309 311 313 312 311 310 307 304 302 303 303 298 295 293 288 284 280 262 239 228 225 222 237 251 249 238 241 246 255 256 241 204 178 168 163
296 293 298 303 307 311 312 312 310 310 312 312 313 312 311 309 307 307 307 307 304 302 299 296 292 288 265 239 222 216 215 222 230 240 244 242 249 257 250 226 188 169 158 156
303 300 301 302 304 305 308 309 311 312 313 315 315 313 310 308 307 308 309 308 308 308 308 308 305 300 274 244 227 206 214 225 234 240 242 246 255 259 243 199 170 158 154 157
300 300 302 304 306 307 308 311 313 314 316 317 315 313 312 312 312 311 310 306 292 285 294 302 306 297 268 245 230 206 215 225 231 239 243 249 254 257 216 169 156 152 155 161
301 305 308 311 311 312 312 314 317 317 318 318 316 315 314 313 313 312 309 308 298 288 290 291 291 284 264 239 232 214 218 223 228 233 239 243 253 236 176 154 150 152 156 161
301 307 310 312 315 317 319 319 318 319 319 319 319 317 317 317 317 315 308 303 302 301 295 283 270 255 249 240 223 220 221 222 226 228 230 236 235 190 158 151 150 152 155 159
304 306 309 314 316 315 317 323 326 325 323 321 320 319 319 318 316 318 321 318 312 308 299 280 263 253 251 238 223 221 223 222 221 221 226 225 202 168 155 151 150 149 151 154
306 307 309 311 316 321 326 329 328 325 321 319 318 320 322 321 322 324 320 317 320 318 312 291 281 268 254 223 219 222 217 216 220 218 207 192 172 156 149 148 145 145 147 150
306 308 312 321 327 326 323 323 325 326 326 324 323 326 327 325 326 328 328 329 332 331 331 324 310 293 242 206 208 209 205 205 194 177 170 160 152 147 146 146 144 144 146 150
311 316 315 313 312 314 321 325 326 327 327 326 328 331 332 333 333 334 335 337 342 344 352 1 7 16 56 103 134 143 147 145 144 144 143 140 140 141 141 143 143 145 147 150
313 313 317 325 327 327 328 328 327 327 326 328 330 332 336 338 340 340 342 345 350 357 6 12 19 25 34 48 61 73 87 101 112 119 127 131 134 136 141 143 145 145 147 150